NOAA 16 DEB, 41243

Orbit data source: Space-Track

NOAA 16 DEB, 41243 is space debris in SSO originally from a launch on Thu, 21 Sep 2000 UTC launched from the Air Force Western Test Range (AFWTR). Debris objects in space refer to the collection of defunct objects orbiting the Earth. Examples of debris include non-operational satellites, rocket bodies, and fragments generated from explosions, collisions, or faulty payload assembly.

Loading next visibility...
Identifier
41243, 2000-055ET
Orbit
SSO
Country
Flag of USUS
Related business
Manufacturer
Unknown
Mission
Spacecraft
Bus & Motor
Unknown
Mass
Unknown
Launch date (UTC)
2000-09-21 (26 years ago)
Launch vehicle
Unknown
Launch site
Air Force Western Test Range (AFWTR)
Object type
Payload
Rocket body
Debris
Shape & HBR
Unknown shape, 0.1 m
Radar Cross Section
Small (<0.1 m²)

Expand to show TLE details & history
Last TLE update: 22 hours ago

TLE from 22 hours ago
0 NOAA 16 DEB
1 41243U 00055ET  26256.19366030  .00002005  00000-0  81289-3 0  9991
2 41243  98.7249 339.7882 0005532 150.2565 209.8932 14.28829537552716
Epoch: 2026-09-13T04:38Z
TLE epoch observation values (Epoch: 2026-09-13T04:38:52.249Z)
Latitude
-0.00002°
Longitude
-82.12132°
Altitude
802.014 km
Speed
7.451 km/s
True Right ascension
22h 39m 09s
True Declination
0° 00' 00"
Sunlit
Object was in full shadow at epoch
Visualization orbit readout
Latitude
Unknown
Longitude
Unknown
Altitude
Unknown
Speed
Unknown
Apparent Right ascension
Unknown
Apparent Declination
Unknown
Sunlit
N/A
Visualization observer readout
Local Sidereal Time
19:09:49
Azimuth
Unknown
Elevation
Unknown
Doppler factor
Unknown
Orbital elements
Apogee altitude
796.76 km
Perigee altitude
788.826 km
Semi-major axis
7,170.93 km
Eccentricity
0.00055
Inclination
98.7249°
RAAN
339.7882°
Arg. of periapsis
150.2565°
True anomaly
209.86163°
Mean anomaly
209.8932°
Eccentric anomaly
209.87741°
Mean motion
3.57421 °/min
Orbital period
100.72 mins
BSTAR
0.00081289
Loading maneuver chart data...
Computing Atmospheric mass density...
Loading historical data...
Loading historical data...
Loading historical data...
Loading historical data...
Loading historical data...
Loading historical data...
Loading historical data...

Documentation

Showing up to 5 results
|